Location: Dillon
(41.1766°N, 107.0923°W)
Time: 11:55:28
(UTC+00:00)

AO-92 - Pass Details

Date: 29 June 2022
Orbit: 469 x 481 km, 97.4° (Epoch: 13 August)

Event Time Altitude Azimuth Distance (km) Brightness Sun altitude
Exits shadow 04:56:32 45° 107° (ESE) 656 ? -18.4°
Maximum altitude 04:57:05 51° 75° (ENE) 611 ? -18.4°
Drops below altitude 10° 05:00:33 10° 359° (N) 1,662 ? -18.8°
Sets 05:02:39 0° 354° (N) 2,549 ? -19.0°
